Wind_Speed
11 11 11 10 10 10 11 12 12 13 13 14 14 14 15 15 15 16 16 16 17 16 16 16 17 17 17 16 17 18 18 19 19 19 19 20 21 21
11 11 11 10 10 10 11 12 12 12 13 13 14 14 14 14 15 15 16 16 16 16 16 16 16 17 17 17 17 18 18 19 20 19 20 20 21 21
12 12 11 11 11 12 12 12 12 13 13 13 14 14 14 14 15 15 15 14 15 16 16 16 16 16 16 17 17 18 18 19 19 20 21 21 21 22
13 13 12 12 12 13 13 13 14 14 14 14 14 14 14 15 15 15 15 14 15 15 16 16 16 16 17 17 17 18 19 19 20 20 20 21 22 23
13 13 13 13 13 13 13 14 15 15 15 15 15 15 15 15 15 15 15 15 16 16 16 16 17 18 18 18 19 20 20 20 20 21 21 21 21 22
13 13 14 14 14 13 14 14 15 16 15 16 16 15 16 16 16 15 16 16 17 16 16 17 18 18 19 19 19 20 20 20 20 20 21 21 21 21
15 15 15 15 15 15 15 16 16 16 16 17 17 16 16 16 16 16 16 16 17 17 17 19 19 19 18 18 18 18 19 19 20 20 20 20 21 21
16 16 16 15 16 16 16 16 16 16 16 17 16 16 16 17 17 16 16 17 18 19 19 18 18 18 19 19 19 19 19 19 20 20 21 21 21 21
16 16 16 16 16 16 16 16 16 16 16 17 16 16 16 17 17 18 18 19 19 19 19 18 18 19 19 19 19 19 19 19 20 21 21 22 22 23
16 16 16 16 16 17 17 17 17 17 17 17 17 17 16 16 17 18 19 19 19 19 19 19 19 19 19 19 19 19 20 21 21 21 22 23 23 23
17 17 17 17 17 17 17 17 18 18 18 18 18 18 18 18 18 18 19 20 20 20 20 20 20 20 20 20 20 20 21 21 22 22 23 23 23 24
18 19 19 19 19 19 18 18 18 19 19 19 19 19 19 19 19 18 19 20 20 21 21 22 21 21 21 21 22 22 22 22 22 23 23 23 24 24
19 20 20 20 20 20 20 19 19 19 19 19 20 20 19 19 19 19 19 20 21 21 22 22 22 22 22 22 22 22 23 24 24 24 24 24 24 25
20 21 21 21 21 21 21 21 21 21 21 21 21 20 20 20 20 20 20 21 21 22 22 22 22 23 23 23 24 24 24 24 25 25 25 25 25 25
21 22 22 22 22 22 21 21 22 22 22 22 22 21 22 21 21 22 22 22 22 23 23 24 24 25 25 25 25 26 26 26 26 26 26 26 26 26
22 23 23 22 22 22 22 22 23 22 22 22 22 23 23 23 23 23 23 24 25 25 26 25 25 25 25 26 26 26 27 27 27 27 27 26 25 25
23 23 23 23 22 22 22 23 23 23 23 23 23 23 23 24 24 24 25 25 26 26 26 26 25 26 26 26 26 26 26 25 26 26 26 25 25 26
23 23 23 22 22 23 23 23 23 23 23 23 23 23 23 24 24 25 25 25 25 25 25 26 25 26 26 26 26 26 26 25 26 26 26 25 26 27
23 23 23 23 23 23 23 23 23 23 23 22 22 23 23 23 24 25 25 25 26 27 26 26 26 26 26 26 26 26 26 26 27 27 27 27 27 27
23 23 23 24 24 23 23 23 23 23 23 24 24 24 24 24 25 26 26 26 26 26 27 26 26 26 27 26 26 26 26 27 28 28 28 28 28 28
23 23 23 23 22 22 22 22 22 23 23 23 23 24 25 25 25 25 25 26 26 26 26 26 26 26 26 26 26 26 27 27 28 28 28 28 28 28
23 23 22 21 22 22 23 23 23 23 24 24 24 24 25 25 26 26 26 26 26 26 26 26 27 26 26 27 26 26 26 27 28 28 28 28 28 28
23 23 22 22 22 23 23 24 24 24 24 25 25 25 25 25 26 26 26 27 26 26 26 26 26 26 26 26 25 26 26 27 27 27 27 28 29 29
Wind_Direction
289 292 297 298 298 294 288 286 287 286 282 282 284 280 282 284 283 283 281 282 284 285 281 282 285 285 280 279 277 277 280 279 279 280 281 277 276 278
290 290 292 291 298 300 297 295 293 291 291 293 291 290 288 286 284 282 285 284 285 286 286 284 286 286 281 281 283 284 284 282 282 282 283 281 278 278
288 287 286 289 292 295 298 298 298 298 298 295 291 290 287 288 288 288 288 286 288 289 288 287 286 286 283 282 283 285 286 285 284 282 282 281 278 277
287 288 286 287 292 294 294 294 295 296 298 297 293 290 289 288 286 287 286 285 289 290 291 290 288 287 284 281 282 283 285 286 284 282 282 282 280 279
286 287 285 287 292 295 294 295 295 294 295 295 292 290 290 289 288 288 286 287 290 290 291 291 289 288 288 286 285 286 287 287 287 286 284 285 285 280
286 287 289 291 291 293 293 295 295 294 294 295 293 289 289 289 289 288 287 287 287 290 292 293 293 290 289 288 286 287 289 289 289 289 287 285 284 282
286 288 290 290 289 291 291 294 295 292 293 293 292 291 290 291 290 289 290 289 288 290 291 292 292 290 288 289 288 290 289 288 288 289 289 287 284 283
286 286 288 290 291 291 290 292 291 291 290 291 291 292 294 293 291 288 290 290 290 292 292 293 292 290 287 286 288 290 290 291 290 289 290 291 290 287
286 286 289 291 290 289 291 293 293 292 292 291 290 293 294 294 294 291 293 292 291 291 292 292 290 290 289 288 290 292 292 292 292 290 289 289 289 289
286 286 287 290 289 289 290 290 290 291 292 293 293 294 294 294 295 293 292 292 293 291 291 292 292 292 290 289 289 289 290 291 292 291 290 289 288 289
285 287 288 289 289 291 290 290 291 293 292 290 289 291 292 293 293 293 292 292 292 291 292 293 293 292 291 289 288 288 288 289 290 291 291 290 288 288
282 284 287 289 290 291 292 292 292 294 293 291 290 290 291 292 291 292 292 290 290 292 292 292 293 292 291 288 286 287 288 288 289 290 289 288 288 288
282 284 286 288 288 289 289 289 290 291 291 289 289 290 290 289 289 291 292 292 291 292 293 294 293 292 291 289 287 286 287 289 289 290 290 290 289 289
283 284 284 285 287 288 286 286 287 288 288 288 289 289 289 289 288 289 291 293 292 293 294 295 294 293 292 291 290 288 287 287 288 289 290 290 290 290
282 284 284 284 285 286 284 283 284 286 287 287 287 289 290 290 288 287 288 290 292 294 295 296 296 295 293 291 290 289 288 287 287 288 288 289 289 289
281 282 282 282 282 283 283 283 284 284 286 287 288 290 291 290 290 288 287 287 289 292 294 295 293 293 292 292 291 290 289 289 289 289 288 288 289 289
280 281 281 281 281 282 282 284 284 284 285 286 287 289 290 290 290 290 289 286 287 288 290 292 292 291 291 290 291 291 290 289 291 292 291 290 290 290
282 281 281 280 280 281 283 283 283 284 284 285 287 288 289 290 291 292 292 290 290 290 291 292 291 290 288 289 290 290 289 289 290 291 292 292 292 292
284 283 281 280 280 280 281 281 282 283 285 286 287 289 290 290 291 290 291 292 292 292 293 293 293 293 293 294 292 289 288 288 289 289 289 290 292 293
283 283 282 281 279 279 280 280 281 284 286 288 289 289 290 291 292 293 293 293 294 294 295 296 295 295 295 294 292 290 289 288 288 288 288 290 291 292
282 283 284 282 281 280 281 282 283 285 288 289 291 291 292 292 293 293 293 294 295 295 296 297 296 295 295 294 293 292 291 290 290 289 289 290 290 291
280 281 282 284 285 284 285 284 284 284 286 288 291 293 293 293 292 292 292 293 294 295 295 296 296 296 296 296 295 295 294 293 292 292 292 291 291 291
278 279 279 282 284 284 284 284 284 285 287 289 291 293 293 293 293 292 293 293 293 295 296 297 297 297 297 297 296 296 296 295 295 294 294 294 293 292
Height
5831 5831 5830 5830 5829 5828 5828 5828 5828 5827 5827 5827 5826 5826 5826 5825 5825 5825 5824 5824 5824 5824 5823 5823 5822 5822 5821 5821 5821 5820 5820 5819 5819 5818 5818 5818 5817 5817
5828 5828 5828 5827 5827 5826 5825 5825 5824 5824 5824 5823 5823 5822 5822 5822 5821 5820 5820 5820 5820 5819 5819 5818 5818 5817 5817 5817 5816 5816 5815 5814 5813 5813 5812 5812 5812 5811
5826 5825 5825 5825 5824 5824 5823 5822 5822 5821 5821 5820 5820 5819 5818 5818 5817 5817 5816 5816 5816 5815 5815 5814 5813 5813 5812 5812 5811 5811 5810 5809 5808 5808 5807 5806 5806 5806
5823 5823 5822 5822 5821 5821 5820 5819 5818 5818 5817 5817 5816 5816 5815 5814 5814 5814 5812 5812 5812 5811 5811 5810 5809 5808 5808 5807 5806 5806 5805 5804 5803 5802 5801 5801 5800 5799
5820 5819 5819 5819 5818 5818 5817 5816 5815 5814 5813 5813 5812 5811 5811 5810 5810 5810 5809 5808 5808 5807 5806 5806 5805 5804 5803 5802 5801 5800 5800 5799 5798 5797 5796 5795 5794 5793
5816 5816 5816 5815 5815 5814 5813 5812 5811 5810 5809 5809 5808 5807 5807 5806 5806 5806 5805 5804 5804 5803 5802 5801 5800 5799 5798 5797 5796 5795 5794 5793 5792 5791 5790 5789 5788 5787
5813 5813 5812 5812 5811 5810 5809 5808 5807 5806 5806 5805 5804 5803 5803 5802 5802 5802 5801 5800 5799 5799 5798 5797 5795 5794 5793 5792 5791 5790 5789 5788 5787 5786 5785 5784 5782 5781
5809 5809 5808 5807 5807 5806 5805 5804 5803 5802 5802 5801 5800 5799 5799 5799 5798 5797 5797 5796 5795 5795 5793 5792 5790 5789 5788 5787 5786 5784 5783 5782 5782 5781 5779 5778 5777 5776
5805 5804 5804 5803 5803 5802 5801 5800 5799 5798 5798 5797 5796 5795 5795 5795 5794 5793 5792 5791 5790 5789 5788 5787 5785 5784 5783 5782 5781 5779 5778 5777 5776 5775 5774 5772 5771 5770
5800 5800 5800 5799 5798 5797 5796 5796 5795 5794 5794 5793 5792 5791 5791 5790 5789 5788 5787 5786 5786 5785 5783 5782 5781 5779 5778 5776 5775 5774 5773 5772 5771 5769 5768 5766 5765 5764
5796 5795 5795 5794 5794 5793 5792 5791 5791 5790 5789 5788 5788 5787 5786 5785 5784 5783 5782 5781 5781 5780 5778 5777 5776 5774 5773 5771 5770 5769 5768 5766 5765 5763 5762 5760 5759 5757
5791 5791 5790 5790 5789 5788 5788 5787 5786 5785 5784 5783 5783 5782 5781 5780 5779 5778 5777 5776 5775 5774 5773 5771 5770 5768 5767 5766 5764 5763 5761 5760 5759 5757 5755 5754 5752 5750
5786 5786 5785 5785 5784 5784 5783 5782 5781 5780 5779 5778 5778 5777 5776 5775 5774 5772 5771 5770 5769 5768 5767 5765 5763 5762 5761 5760 5759 5757 5755 5753 5752 5750 5749 5747 5745 5743
5781 5781 5780 5779 5779 5778 5777 5776 5775 5775 5774 5773 5772 5771 5770 5769 5768 5767 5766 5764 5763 5762 5760 5758 5757 5755 5754 5752 5751 5750 5748 5747 5745 5743 5741 5740 5738 5736
5775 5775 5774 5773 5773 5772 5771 5770 5770 5769 5768 5767 5767 5765 5764 5763 5762 5761 5759 5758 5757 5755 5753 5751 5750 5748 5746 5745 5744 5742 5741 5739 5737 5736 5734 5732 5730 5728
5769 5768 5768 5767 5766 5766 5765 5764 5763 5763 5762 5761 5760 5759 5758 5756 5755 5754 5753 5752 5750 5749 5747 5745 5742 5741 5739 5737 5735 5734 5733 5731 5729 5728 5726 5724 5723 5721
5762 5762 5761 5761 5760 5759 5759 5758 5757 5756 5755 5754 5753 5752 5751 5750 5748 5747 5745 5744 5743 5741 5740 5737 5735 5733 5731 5729 5728 5726 5725 5723 5721 5719 5718 5716 5714 5713
5756 5755 5754 5754 5753 5752 5752 5751 5750 5749 5748 5747 5746 5745 5744 5742 5741 5740 5738 5736 5735 5733 5732 5730 5728 5726 5724 5722 5720 5718 5717 5715 5714 5712 5710 5708 5706 5704
5749 5748 5747 5747 5746 5745 5745 5744 5743 5742 5741 5740 5739 5738 5736 5735 5734 5732 5730 5729 5727 5725 5724 5722 5720 5718 5716 5715 5713 5711 5709 5707 5706 5704 5702 5700 5698 5696
5742 5741 5741 5740 5739 5739 5738 5737 5736 5736 5735 5733 5732 5730 5729 5728 5726 5725 5723 5721 5719 5717 5716 5714 5712 5710 5708 5706 5705 5703 5701 5699 5697 5696 5694 5692 5690 5688
5735 5735 5734 5733 5732 5732 5731 5730 5729 5728 5727 5726 5725 5723 5722 5720 5718 5717 5715 5713 5712 5710 5708 5706 5704 5702 5700 5698 5697 5695 5693 5690 5688 5687 5685 5683 5681 5679
5729 5728 5727 5727 5726 5725 5724 5723 5723 5721 5720 5719 5718 5716 5714 5712 5711 5709 5708 5706 5704 5702 5700 5698 5696 5694 5692 5690 5688 5686 5684 5682 5680 5678 5676 5674 5672 5670
5721 5721 5720 5720 5719 5718 5717 5716 5715 5714 5713 5712 5710 5708 5706 5705 5703 5701 5700 5698 5696 5694 5692 5690 5688 5686 5684 5682 5680 5678 5676 5674 5672 5670 5668 5666 5664 5661